Regional Weather Roundup
Issued by NWS Green Bay, WI

Home | Current Version | Previous Version | Text Only | Print | Product List | Glossary On
Versions: 1 2 3 4 5 6 7 8 9 10 11 12 13 14 15 16 17 18 19 20 21 22 23 24 25 26 27 28 29 30 31 32 33 34 35 36 37 38 39 40 41 42 43 44 45 46 47 48 49 50
000
ASUS43 KGRB 261511
RWRGRB

NORTH-CENTRAL AND NORTHEAST WISCONSIN REGIONAL WEATHER ROUNDUP
NATIONAL WEATHER SERVICE GREEN BAY WI
1000 AM CDT MON JUN 26 2017

WIZ005-009-010>012-018-019-261600-
NORTH CENTRAL WISCONSIN

CITY           SKY/WX    TMP DP  RH WIND       PRES   REMARKS
IRONWOOD       LGT RAIN  49  46  90 CALM      30.10S
MANITOWISH WTR RAIN      47  47 100 NW10      30.07R
ARBOR VITAE    DRIZZLE   49  47  93 N12G20    30.06R
EAGLE RIVER    RAIN      48  47  94 NW8G16    30.04R
LAND O LAKES   CLOUDY    48  46  91 N10       30.05S
RHINELANDER    CLOUDY    50  46  86 NW10G18   30.05S
PHILLIPS       DRIZZLE   47  46  96 NW9       30.10R
ANTIGO         CLOUDY    48  44  87 NW13G18   30.05S
TOMAHAWK       NOT AVBL
MERRILL        CLOUDY    49  45  84 NW9G20    30.08R
$$

WIZ013-073-261600-
NORTHEAST WISCONSIN

CITY           SKY/WX    TMP DP  RH WIND       PRES   REMARKS
IRON MOUNTAIN  CLOUDY    52  46  80 NW7       29.99R
MARINETTE      CLOUDY    56  47  71 NW8       30.00S
OCONTO         CLOUDY    55  45  69 NW5       30.01S
$$

WIZ017-030-035>037-045-261600-
CENTRAL WISCONSIN

CITY           SKY/WX    TMP DP  RH WIND       PRES   REMARKS
MEDFORD        CLOUDY    51  45  80 NW15G21   30.10S
WAUSAU         CLOUDY    51  43  74 NW14G24   30.06S
MOSINEE        CLOUDY    52  45  76 NW13      30.08F
MARSHFIELD     LGT RAIN  50  44  80 N16G24    30.10R
WISC RAPIDS    CLOUDY    56  44  64 NW14G25   30.10S
STEVENS POINT  DRIZZLE   51  42  71 NW12G18   30.08S
WAUPACA        PTSUNNY   57  45  64 W13G18    30.08S
SHAWANO        CLOUDY    54  45  72 W10       30.04S
CLINTONVILLE   CLOUDY    54  41  62 NW15G21   30.04F
WAUTOMA        CLOUDY    56  44  64 NW18G24   30.09S
$$

WIZ038-039-048-051-261600-
FOX VALLEY

CITY           SKY/WX    TMP DP  RH WIND       PRES   REMARKS
NWS GREEN BAY  CLOUDY    55  47  74 W14       30.03F
APPLETON       PTSUNNY   55  43  62 W16G22    30.04S
OSHKOSH        PTSUNNY   55  44  66 NW16G24   30.06R
FOND DU LAC    MOSUNNY   60  44  55 W17G24    30.06F
$$

WIZ022-050-052-261600-
EAST CENTRAL WISCONSIN

CITY           SKY/WX    TMP DP  RH WIND       PRES   REMARKS
EPHRAIM        CLOUDY    53  47  79 W9G16     29.98S
WASHINGTON ISL CLOUDY    55  50  84 NW10      29.96S
STURGEON BAY     N/A     54  46  74 W13         N/A
MANITOWOC      MOSUNNY   58  45  62 W16       30.03S
SHEBOYGAN      MOSUNNY   59  49  69 W15G22    30.04F
$$

LMZ563-521-522-541>543-261600-
LAKESHORE

STATION/POSITION TIME  TEMP    WIND        PRES    VSBY  WAVE
                       AIR SEA DIR/SP/G                  HT/PER
                 (UTC) (F)     (DEG/KT/KT) (MB)    (MI)  (FT/S)
SHEBOYGAN LKSHOR 1500   57     290/ 13/ 17 1017.1F
KEWAUNEE LKSHORE 1448   56     290/ 10/ 16 1015.8F
NORTHPORT PIER   1440   56     310/  7/ 14 1014.9S
N MID LAKE BUOY  1450   53 55  340/  6/  6 1015.2          2/ 4
S GREEN BAY BUOY 1500   56     270/ 14/ 17 1015.6
CHAMBERS ISLAND  1440   56     270/  5/ 11 1014.9S
MENOMINEE LKSHOR 1448          270/ 10/ 14 1014.9F
$$




USA.gov is the U.S. government's official web portal to all federal, state and local government web resources and services.